sat.trackr.live / text

‹ back to catalog

STARLINK-35059

NORAD 65454 · 2025-194W

PAYLOAD ACTIVE UNKNOWN

§ Identity

Operator
Country
US
Launch date
2025-09-03
Launch site
AFWTR
Launch vehicle
Mass (kg)
RCS (m²)

Purposes: comms

External: N2YO · Heavens-Above · Gunter

§ Orbital elements

Epoch: 2026-05-25T00:57:14.387040Z

Period
95.69 min
Inclination
97.5146°
Eccentricity
0.0002219
Mean motion
15.04838834 rev/d
Perigee alt
550.5 km
Apogee alt
553.5 km
Semi-major
6,930.1 km
B*
1.9238e-4
RAAN
359.7069°
Arg perigee
88.1682°
Mean anomaly
271.9798°
Rev number
4,115

§ Raw data

STARLINK-350591 65454U 25194W   26145.03974985  .00002658  00000+0  19238-3 0  99942 65454  97.5146 359.7069 0002219  88.1682 271.9798 15.04838834 41152

JSON: /api/v1/satellites/65454 · /tle

For live sub-satellite position, see the globe view (requires WebGL).

§ Visibility from observer

Set your observer location to see the next 7 days of passes ≥ 10°. The values pass through the URL so the page stays shareable.

No JS? Fill the form by hand. The geolocation button needs JavaScript.